Weather Roundup
Issued by NWS

Home | Current Version | Previous Version | Graphics & Text | Print | Product List | Glossary Off
Versions: 1 2 3 4 5 6 7 8 9 10 11 12 13 14 15 16 17 18 19 20 21 22 23 24 25 26 27 28 29 30 31 32 33 34 35 36 37 38 39 40 41 42 43 44 45 46 47 48 49 50

000
NZUS93 KARX 221010
HRRWXR

CURRENT HOURLY OBSERVATIONS ACROSS
MUCH OF THE UPPER MISSISSIPPI VALLEY
NATIONAL WEATHER SERVICE LA CROSSE WI
500 AM CDT MON SEP 22 2014


...SOUTHEAST MINNESOTA...


CITY           SKY/WX    TMP DP  RH WIND       PRES   REMARKS
ROCHESTER      CLEAR     45  44  97 W6        30.25S
ROCHESTER/MAYO FAIR      48  46  93 CALM      30.24S
WINONA         CLEAR     45  43  93 CALM      30.24S
AUSTIN         FOG       43  41  93 CALM      30.25S VSB 1
ALBERT LEA       N/A     46  46 100 CALM      30.25S FOG
DODGE CENTER   FOG       43  43 100 CALM      30.24S VSB 3/4
PRESTON        CLEAR     45  45 100 CALM      30.25S
OWATONNA       CLEAR     43  41  93 CALM      30.25R FOG
FARIBAULT      PTCLDY    45  39  81 CALM      30.25R HAZE
$$

...ELSEWHERE IN MINNESOTA...


CITY           SKY/WX    TMP DP  RH WIND       PRES   REMARKS
MINNEAPOLIS    CLEAR     49  47  93 CALM      30.23R
INTNL FALLS    CLEAR     41  40  96 CALM      30.14S
DULUTH         CLEAR     44  42  93 NW6       30.18R
RED WING       CLEAR     43  43 100 CALM      30.23R FOG
REDWOOD FALLS  CLEAR     45  43  93 CALM      30.25R
MANKATO        CLEAR     46  41  81 W5        30.25S
WORTHINGTON    CLEAR     43  43 100 SW3       30.29R
FAIRMONT       CLEAR     45  39  81 CALM      30.26S
$$

...SOUTHWEST WISCONSIN...


CITY           SKY/WX    TMP DP  RH WIND       PRES   REMARKS
LA CROSSE      MOCLDY    50  48  93 S8        30.23S FOG
PRAIRIE DU CHI FOG       46  45  95 CALM      30.26R VSB 1/4
BOSCOBEL       FOG       45  44  97 S3        30.26R VSB 1/4
LONE ROCK      MOCLDY    43  38  82 CALM      30.25R
PLATTEVILLE    CLEAR     41  40  93 CALM      30.25R
FORT MC COY    CLEAR     34  34 100 CALM      30.25R
CAMP DOUGLAS   CLEAR     34  34 100 CALM      30.23R
VIROQUA        FAIR      43  43 100 W3        30.24R
WIS DELLS      CLEAR     38  37  94 CALM      30.23R
$$

...ELSEWHERE IN WISCONSIN...


CITY           SKY/WX    TMP DP  RH WIND       PRES   REMARKS
MILWAUKEE      CLEAR     44  38  79 NW6       30.21R
MADISON        CLEAR     41  37  86 CALM      30.23R
GREEN BAY      CLEAR     39  38  96 W3        30.20R
EAU CLAIRE     CLEAR     43  42  97 SW3       30.21S
BLACK RVR FLS  FOG       37  37 100 CALM      30.22S VSB<1/4
MEDFORD        CLEAR     38  38  97 CALM      30.20S
WAUSAU         CLEAR     42  39  89 NW7       30.19S
WIS RAPIDS     CLEAR     39  38  96 CALM      30.23R
MARSHFIELD     CLEAR     43  40  89 W7        30.21R
RICE LAKE      CLEAR     41  40  97 CALM      30.22F
$$

...NORTHEAST IOWA...


CITY           SKY/WX    TMP DP  RH WIND       PRES   REMARKS
WATERLOO       PTCLDY    42  42 100 CALM      30.26R FOG
DUBUQUE        CLEAR     40  39  97 W3        30.25R
DECORAH        CLEAR     45  45 100 CALM      30.24S
MASON CITY     CLEAR     43  42  97 CALM      30.27S
CHARLES CITY   CLEAR     45  43  93 NW5       30.26S FOG
OELWEIN        CLEAR     43  43 100 CALM      30.26S
$$

...ELSEWHERE IN IOWA...


CITY           SKY/WX    TMP DP  RH WIND       PRES   REMARKS
DES MOINES     CLEAR     50  47  89 CALM      30.27R
IOWA CITY        N/A     44  43  96 W3        30.27R
FORT DODGE     PTCLDY    43  41  93 CALM      30.28S
MARSHALLTOWN   CLEAR     45  44  97 NW5       30.27R
CEDAR RAPIDS   CLEAR     43  43 100 NW3       30.25R
$$

...NORTHERN ILLINOIS...


CITY           SKY/WX    TMP DP  RH WIND       PRES   REMARKS
CHICAGO-OHARE  PTCLDY    47  41  80 NW8       30.20R
DUPAGE         CLEAR     43  39  86 NW5       30.21R
CHICAGO-MIDWAY PTCLDY    50  44  80 NW9       30.20R
MOLINE         CLEAR     44  42  93 CALM      30.25R
ROCKFORD       CLEAR     44  40  85 CALM      30.25R
STERLING       CLEAR     45  39  81 CALM      30.24R
PEORIA         CLEAR     49  45  86 CALM      30.23R
$$

NOTE: "FAIR" INDICATES FEW OR NO CLOUDS BELOW 12,000 FEET WITH NO
SIGNIFICANT WEATHER AND/OR OBSTRUCTIONS TO VISIBILITY. WIND
SPEEDS ARE IN MILES-PER-HOUR.



USA.gov is the U.S. government's official web portal to all federal, state and local government web resources and services.